International Virtual Aviation Organisation

Russian Federation and Kazakhstan MCD

 

Карточка аэропорта UATE

Внимание!
Информация на этой странице в стадии наполнения.
Если вы не увидели какой-то информации, или заметили неточность - пожалуйста сообщите нам!
Спасибо!
Команда RU-STAFF
Название аэропортаАктау
Название аэропорта (англ.)Aktau
Превышение75 ft. (22.9 m.)
Координаты43°51.138', 51°5.3639999999999'
Высота перехода2050
Эшелон переходаFL40
Коды ответчика3460-3467, 3550-3557
Зона ОрВДАктобе РПИ (UATT)
Данные METARUATE 300100Z 07008MPS CAVOK M01/M06 Q1032 R12/0///70 NOSIG RMK QFE772/1030
Проноз погоды (TAF)UATE 292300Z 3000/3024 09007G13MPS 9999 SCT033 TX03/3010Z TNM02/3003Z TEMPO 3017/0123 -SHSNRA BKN015CB OVC040
NOTAMshow/hide NOTAM
AWOS   TABLE

Информация о ВПП

ВПП Длина ВПП (м.) Покрытие Курс ВПП Частота ILS
123052Асфальтобетон122109.5
303052Асфальт302111.1

Диспетчерские позиции

Позывной Наименование органа УВД Частота
UATE_TWRАктау Вышка120.7
UATE_APPАктау Поход134.3



Спутниковое изображение